JST460 YSSY-YBNA

Flight info

Callsign JST460
Flight time 0h 55m
Altitude 37000
Route TESAT H252 OLSEM Y193 BNA
Aircraft A20N/M-SDE2E3FGHIJ1RWXY/LB1

Departure

Time 2026-05-08 01:47
Airport Sydney Kingsford Smith International Airport (YSSY)

Arrival

Time 2026-05-08 02:42
Airport Ballina Byron Gateway Airport (YBNA)
Time Latitude Longitude Altitude Speed Heading
2026-05-08 01:23 -33.93515 151.17696 28 ft 0 kts 101°
2026-05-08 01:38 -33.93514 151.17682 28 ft 2 kts 100°
2026-05-08 01:38 -33.93511 151.17665 28 ft 2 kts 101°
2026-05-08 01:39 -33.93508 151.17647 28 ft 2 kts 100°
2026-05-08 01:39 -33.93505 151.17629 28 ft 2 kts 101°
2026-05-08 01:39 -33.93502 151.17612 28 ft 2 kts 100°
2026-05-08 01:39 -33.93498 151.17593 28 ft 2 kts 134°
2026-05-08 01:40 -33.93487 151.17586 28 ft 0 kts 164°
2026-05-08 01:40 -33.93481 151.17584 28 ft 1 kts 170°
2026-05-08 01:40 -33.93479 151.17584 28 ft 0 kts 169°
2026-05-08 01:42 -33.93481 151.17584 28 ft 1 kts 169°
2026-05-08 01:42 -33.93494 151.17587 28 ft 2 kts 170°
2026-05-08 01:42 -33.93523 151.17595 28 ft 5 kts 167°
2026-05-08 01:42 -33.93585 151.17610 28 ft 12 kts 169°
2026-05-08 01:43 -33.93673 151.17654 28 ft 14 kts 145°
2026-05-08 01:43 -33.93739 151.17749 28 ft 14 kts 122°
2026-05-08 01:43 -33.93794 151.17857 28 ft 15 kts 117°
2026-05-08 01:43 -33.93791 151.17984 28 ft 15 kts 75°
2026-05-08 01:44 -33.93762 151.18114 28 ft 16 kts 74°
2026-05-08 01:44 -33.93729 151.18249 28 ft 17 kts 74°
2026-05-08 01:44 -33.93697 151.18390 28 ft 17 kts 75°
2026-05-08 01:44 -33.93662 151.18535 28 ft 18 kts 73°
2026-05-08 01:45 -33.93626 151.18684 28 ft 18 kts 74°
2026-05-08 01:45 -33.93594 151.18834 28 ft 17 kts 85°
2026-05-08 01:45 -33.93631 151.18935 28 ft 7 kts 151°
2026-05-08 01:45 -33.93659 151.18947 28 ft 3 kts 163°
2026-05-08 01:46 -33.93691 151.18957 28 ft 7 kts 167°
2026-05-08 01:46 -33.93753 151.18942 28 ft 12 kts 223°
2026-05-08 01:46 -33.93805 151.18776 28 ft 48 kts 254°
2026-05-08 01:46 -33.93970 151.18077 29 ft 122 kts 253°
2026-05-08 01:47 -33.94238 151.16937 383 ft 149 kts 255°
2026-05-08 01:47 -33.94502 151.15761 1209 ft 149 kts 254°
2026-05-08 01:47 -33.94627 151.14603 2113 ft 146 kts 275°
2026-05-08 01:48 -33.92804 151.13046 2971 ft 206 kts 355°
2026-05-08 01:48 -33.91378 151.13635 3362 ft 237 kts 38°
2026-05-08 01:48 -33.90170 151.15137 3842 ft 258 kts 50°
2026-05-08 01:48 -33.88999 151.16850 4396 ft 276 kts 52°
2026-05-08 01:49 -33.87754 151.18695 5022 ft 291 kts 52°
2026-05-08 01:49 -33.86465 151.20573 5891 ft 296 kts 52°
2026-05-08 01:49 -33.85139 151.22481 6806 ft 299 kts 52°
2026-05-08 01:49 -33.83792 151.24406 7632 ft 305 kts 51°
2026-05-08 01:50 -33.82425 151.26349 8401 ft 312 kts 51°
2026-05-08 01:50 -33.81002 151.28363 9161 ft 319 kts 51°
2026-05-08 01:50 -33.79556 151.30403 9904 ft 326 kts 51°
2026-05-08 01:50 -33.78068 151.32501 10599 ft 335 kts 51°
2026-05-08 01:51 -33.76534 151.34662 11036 ft 352 kts 50°
2026-05-08 01:51 -33.74889 151.36975 11426 ft 371 kts 50°
2026-05-08 01:51 -33.73190 151.39363 11787 ft 389 kts 50°
2026-05-08 01:51 -33.71410 151.41859 12354 ft 398 kts 50°
2026-05-08 01:52 -33.69580 151.44428 13080 ft 403 kts 50°
2026-05-08 01:52 -33.67765 151.46974 13758 ft 408 kts 49°
2026-05-08 01:52 -33.65896 151.49588 14425 ft 414 kts 49°
2026-05-08 01:52 -33.64030 151.52197 15102 ft 418 kts 50°
2026-05-08 01:53 -33.62125 151.54857 15756 ft 424 kts 50°
2026-05-08 01:53 -33.60194 151.57556 16385 ft 428 kts 49°
2026-05-08 01:53 -33.58260 151.60255 17014 ft 433 kts 49°
2026-05-08 01:53 -33.56274 151.63023 17627 ft 438 kts 49°
2026-05-08 01:54 -33.54269 151.65817 18220 ft 442 kts 49°
2026-05-08 01:54 -33.52273 151.68594 18835 ft 446 kts 49°
2026-05-08 01:54 -33.51888 151.69127 18951 ft 446 kts 48°
2026-05-08 01:54 -33.50582 151.70746 19311 ft 448 kts 40°
2026-05-08 01:55 -33.48026 151.72862 19894 ft 445 kts 23°
2026-05-08 01:55 -33.45144 151.74156 20498 ft 442 kts 11°
2026-05-08 01:55 -33.42177 151.75067 21073 ft 443 kts
2026-05-08 01:55 -33.39168 151.75938 21599 ft 448 kts
2026-05-08 01:56 -33.36143 151.76857 22151 ft 452 kts 10°
2026-05-08 01:56 -33.33099 151.77823 22725 ft 454 kts 10°
2026-05-08 01:56 -33.30014 151.78819 23275 ft 457 kts 11°
2026-05-08 01:56 -33.26938 151.79814 23772 ft 460 kts 10°
2026-05-08 01:57 -33.23867 151.80809 24269 ft 463 kts 10°
2026-05-08 01:57 -33.20739 151.81819 24717 ft 466 kts 10°
2026-05-08 01:57 -33.17609 151.82831 25175 ft 469 kts 10°
2026-05-08 01:57 -33.14471 151.83843 25642 ft 471 kts
2026-05-08 01:58 -33.11299 151.84863 26120 ft 472 kts
2026-05-08 01:58 -33.08110 151.85887 26547 ft 474 kts
2026-05-08 01:58 -33.04900 151.86919 26968 ft 476 kts
2026-05-08 01:58 -33.01689 151.87950 27418 ft 477 kts
2026-05-08 01:59 -32.98510 151.88969 27936 ft 476 kts
2026-05-08 01:59 -32.95334 151.89989 28492 ft 474 kts
2026-05-08 01:59 -32.92155 151.91011 29053 ft 472 kts
2026-05-08 01:59 -32.88977 151.92029 29598 ft 470 kts
2026-05-08 02:00 -32.85832 151.93033 30121 ft 468 kts
2026-05-08 02:00 -32.82684 151.94041 30613 ft 466 kts
2026-05-08 02:00 -32.79565 151.95035 31107 ft 463 kts
2026-05-08 02:00 -32.76490 151.96016 31571 ft 461 kts
2026-05-08 02:01 -32.73386 151.97005 32004 ft 459 kts
2026-05-08 02:01 -32.70336 151.97977 32476 ft 456 kts
2026-05-08 02:01 -32.67268 151.98953 32926 ft 453 kts
2026-05-08 02:01 -32.64218 151.99922 33326 ft 451 kts
2026-05-08 02:02 -32.61221 152.00874 33722 ft 449 kts
2026-05-08 02:02 -32.58189 152.01837 34121 ft 447 kts
2026-05-08 02:02 -32.55186 152.02792 34478 ft 444 kts
2026-05-08 02:02 -32.52214 152.03737 34775 ft 442 kts
2026-05-08 02:03 -32.49260 152.04674 35086 ft 440 kts
2026-05-08 02:03 -32.46325 152.05603 35340 ft 440 kts
2026-05-08 02:03 -32.43360 152.06540 35551 ft 440 kts
2026-05-08 02:03 -32.40405 152.07474 35765 ft 440 kts
2026-05-08 02:04 -32.37427 152.08414 35949 ft 440 kts
2026-05-08 02:04 -32.34493 152.09340 36202 ft 440 kts
2026-05-08 02:04 -32.31518 152.10278 36421 ft 440 kts
2026-05-08 02:04 -32.28554 152.11214 36611 ft 441 kts
2026-05-08 02:05 -32.25590 152.12149 36783 ft 441 kts
2026-05-08 02:05 -32.22624 152.13083 36996 ft 441 kts
2026-05-08 02:05 -32.16695 152.14946 37083 ft 442 kts
2026-05-08 02:06 -32.10734 152.16821 37084 ft 442 kts
2026-05-08 02:06 -32.04768 152.18689 37098 ft 442 kts
2026-05-08 02:07 -31.98812 152.20558 37110 ft 442 kts
2026-05-08 02:07 -31.92883 152.22415 37079 ft 440 kts
2026-05-08 02:08 -31.86977 152.24263 37083 ft 440 kts
2026-05-08 02:08 -31.81019 152.26121 37072 ft 440 kts
2026-05-08 02:09 -31.75100 152.27966 37060 ft 440 kts
2026-05-08 02:09 -31.69210 152.29803 37077 ft 440 kts
2026-05-08 02:10 -31.63300 152.31641 37072 ft 439 kts
2026-05-08 02:10 -31.57384 152.33479 37060 ft 439 kts
2026-05-08 02:11 -31.51494 152.35304 37075 ft 439 kts
2026-05-08 02:11 -31.45586 152.37134 37172 ft 438 kts
2026-05-08 02:12 -31.39701 152.38956 37101 ft 437 kts
2026-05-08 02:12 -31.33827 152.40768 37089 ft 437 kts
2026-05-08 02:13 -31.27946 152.42584 37091 ft 436 kts
2026-05-08 02:13 -31.22074 152.44392 37088 ft 436 kts
2026-05-08 02:14 -31.16204 152.46199 37085 ft 436 kts
2026-05-08 02:14 -31.10340 152.48003 37082 ft 436 kts
2026-05-08 02:15 -31.04509 152.49793 37086 ft 435 kts
2026-05-08 02:15 -30.98627 152.51596 37085 ft 435 kts
2026-05-08 02:16 -30.92803 152.53380 37074 ft 435 kts
2026-05-08 02:16 -30.86904 152.55182 37086 ft 435 kts
2026-05-08 02:17 -30.81104 152.57280 37079 ft 440 kts
2026-05-08 02:17 -30.75437 152.60188 37080 ft 450 kts 15°
2026-05-08 02:18 -30.69902 152.63689 37075 ft 454 kts 17°
2026-05-08 02:18 -30.64374 152.67233 37069 ft 454 kts 16°
2026-05-08 02:19 -30.58810 152.70781 37082 ft 454 kts 16°
2026-05-08 02:19 -30.53303 152.74286 37075 ft 453 kts 16°
2026-05-08 02:20 -30.47796 152.77782 37077 ft 451 kts 16°
2026-05-08 02:20 -30.42299 152.81268 37075 ft 450 kts 15°
2026-05-08 02:21 -30.36765 152.84761 36800 ft 456 kts 15°
2026-05-08 02:21 -30.33963 152.86523 36017 ft 463 kts 16°
2026-05-08 02:21 -30.31128 152.88307 35264 ft 465 kts 17°
2026-05-08 02:22 -30.28291 152.90099 34538 ft 466 kts 17°
2026-05-08 02:22 -30.25454 152.91893 33804 ft 466 kts 17°
2026-05-08 02:22 -30.22628 152.93677 33128 ft 465 kts 18°
2026-05-08 02:22 -30.19770 152.95479 32413 ft 466 kts 18°
2026-05-08 02:23 -30.16947 152.97255 31663 ft 468 kts 19°
2026-05-08 02:23 -30.14074 152.99057 30886 ft 470 kts 20°
2026-05-08 02:23 -30.11187 153.00868 30052 ft 474 kts 21°
2026-05-08 02:23 -30.08299 153.02686 29174 ft 476 kts 21°
2026-05-08 02:24 -30.05391 153.04515 28265 ft 477 kts 21°
2026-05-08 02:24 -30.02509 153.06328 27313 ft 480 kts 22°
2026-05-08 02:24 -29.99582 153.08166 26428 ft 480 kts 22°
2026-05-08 02:24 -29.96643 153.10014 25807 ft 474 kts 23°
2026-05-08 02:25 -29.93788 153.11810 25178 ft 469 kts 23°
2026-05-08 02:25 -29.90956 153.13591 24492 ft 458 kts 23°
2026-05-08 02:25 -29.88160 153.15347 23270 ft 452 kts 24°
2026-05-08 02:25 -29.85428 153.17053 21914 ft 448 kts 24°
2026-05-08 02:26 -29.82710 153.18753 21288 ft 435 kts 24°
2026-05-08 02:26 -29.80092 153.20395 20859 ft 428 kts 24°
2026-05-08 02:26 -29.77488 153.22020 20373 ft 425 kts 24°
2026-05-08 02:26 -29.74893 153.23637 19866 ft 422 kts 24°
2026-05-08 02:27 -29.72339 153.25229 19357 ft 419 kts 24°
2026-05-08 02:27 -29.69792 153.26816 18832 ft 416 kts 24°
2026-05-08 02:27 -29.67228 153.28410 18312 ft 414 kts 24°
2026-05-08 02:27 -29.64728 153.29967 17809 ft 411 kts 24°
2026-05-08 02:28 -29.62210 153.31534 17320 ft 409 kts 24°
2026-05-08 02:28 -29.59724 153.33078 16819 ft 406 kts 24°
2026-05-08 02:28 -29.57244 153.34618 16321 ft 403 kts 24°
2026-05-08 02:28 -29.54779 153.36148 15802 ft 401 kts 25°
2026-05-08 02:29 -29.52341 153.37660 15298 ft 398 kts 25°
2026-05-08 02:29 -29.49930 153.39154 14793 ft 396 kts 25°
2026-05-08 02:29 -29.47500 153.40660 14284 ft 393 kts 25°
2026-05-08 02:29 -29.45098 153.42149 13777 ft 390 kts 25°
2026-05-08 02:30 -29.42726 153.43619 13273 ft 387 kts 25°
2026-05-08 02:30 -29.40360 153.45085 12771 ft 385 kts 26°
2026-05-08 02:30 -29.38030 153.46529 12277 ft 382 kts 26°
2026-05-08 02:30 -29.35682 153.47980 11773 ft 379 kts 26°
2026-05-08 02:31 -29.33367 153.49411 11267 ft 377 kts 26°
2026-05-08 02:31 -29.31071 153.50830 10777 ft 374 kts 26°
2026-05-08 02:31 -29.28808 153.52229 10533 ft 363 kts 26°
2026-05-08 02:31 -29.26639 153.53571 10359 ft 350 kts 26°
2026-05-08 02:32 -29.24510 153.54886 10194 ft 338 kts 26°
2026-05-08 02:32 -29.22490 153.56133 10050 ft 326 kts 25°
2026-05-08 02:32 -29.20519 153.57347 9874 ft 316 kts 26°
2026-05-08 02:32 -29.18593 153.58533 9490 ft 314 kts 26°
2026-05-08 02:33 -29.16680 153.59706 9115 ft 312 kts 26°
2026-05-08 02:33 -29.14776 153.60875 8751 ft 310 kts 26°
2026-05-08 02:33 -29.12887 153.62036 8391 ft 307 kts 26°
2026-05-08 02:33 -29.10997 153.63197 8028 ft 305 kts 26°
2026-05-08 02:34 -29.09142 153.64336 7670 ft 303 kts 27°
2026-05-08 02:34 -29.07294 153.65469 7309 ft 300 kts 26°
2026-05-08 02:34 -29.05470 153.66591 6954 ft 298 kts 26°
2026-05-08 02:34 -29.03641 153.67714 6597 ft 296 kts 27°
2026-05-08 02:35 -29.01814 153.68837 6240 ft 294 kts 27°
2026-05-08 02:35 -29.00040 153.69925 5900 ft 291 kts 27°
2026-05-08 02:35 -28.98260 153.71016 5565 ft 289 kts 27°
2026-05-08 02:35 -28.96502 153.72093 5223 ft 286 kts 27°
2026-05-08 02:36 -28.94737 153.73175 4885 ft 283 kts 27°
2026-05-08 02:36 -28.93021 153.74228 4554 ft 281 kts 27°
2026-05-08 02:36 -28.91301 153.75281 4285 ft 275 kts 28°
2026-05-08 02:36 -28.89663 153.76282 4203 ft 263 kts 28°
2026-05-08 02:37 -28.88050 153.77269 4121 ft 261 kts 28°
2026-05-08 02:37 -28.86430 153.78171 3998 ft 250 kts 15°
2026-05-08 02:37 -28.84756 153.78214 3778 ft 241 kts 345°
2026-05-08 02:37 -28.83158 153.77647 3547 ft 236 kts 339°
2026-05-08 02:38 -28.81629 153.77022 3325 ft 232 kts 339°
2026-05-08 02:38 -28.80134 153.76386 3140 ft 224 kts 328°
2026-05-08 02:38 -28.79074 153.75172 3000 ft 211 kts 293°
2026-05-08 02:38 -28.78820 153.73599 2838 ft 200 kts 262°
2026-05-08 02:39 -28.79091 153.72067 2646 ft 194 kts 252°
2026-05-08 02:39 -28.79510 153.70602 2378 ft 193 kts 250°
2026-05-08 02:39 -28.79910 153.69215 2170 ft 183 kts 250°
2026-05-08 02:39 -28.80273 153.67859 1866 ft 175 kts 251°
2026-05-08 02:40 -28.80606 153.66563 1644 ft 163 kts 252°
2026-05-08 02:40 -28.80909 153.65384 1460 ft 150 kts 254°
2026-05-08 02:40 -28.81192 153.64287 1255 ft 137 kts 253°
2026-05-08 02:40 -28.81452 153.63287 1068 ft 131 kts 252°
2026-05-08 02:41 -28.81713 153.62286 913 ft 131 kts 251°
2026-05-08 02:41 -28.81972 153.61276 680 ft 133 kts 252°
2026-05-08 02:41 -28.82228 153.60275 523 ft 133 kts 250°
2026-05-08 02:41 -28.82494 153.59256 405 ft 133 kts 251°
2026-05-08 02:42 -28.82758 153.58249 257 ft 133 kts 250°
2026-05-08 02:42 -28.83032 153.57240 81 ft 135 kts 251°
2026-05-08 02:42 -28.83295 153.56245 18 ft 112 kts 250°
2026-05-08 02:42 -28.83430 153.55733 19 ft 22 kts 252°
2026-05-08 02:43 -28.83495 153.55658 19 ft 11 kts 165°
2026-05-08 02:43 -28.83534 153.55672 20 ft 5 kts 163°
2026-05-08 02:43 -28.83571 153.55684 20 ft 5 kts 163°
2026-05-08 02:43 -28.83611 153.55699 21 ft 6 kts 161°
2026-05-08 02:44 -28.83637 153.55708 21 ft 2 kts 173°
2026-05-08 02:44 -28.83656 153.55701 21 ft 3 kts 205°
2026-05-08 02:44 -28.83667 153.55695 21 ft 0 kts 207°
2026-05-08 02:44 -28.83675 153.55690 21 ft 1 kts 206°
2026-05-08 02:45 -28.83676 153.55690 21 ft 0 kts 207°